Station 42056 (LLNR 80) - Yucatan Basin - 120 NM ESE of Cozumel, MX Image indicating link to RSS feed of recent meteorological observations for station 42056


Conditions at 42056 as of
(9:30 pm EDT on 07/22/2024)
0130 GMT on 07/23/2024:
     

Click on the graph icon in the table below to see a time series plot of the last five days of that observation.

5-day plot - Wind Direction Wind Direction (WDIR): E ( 90 deg true )
5-day plot - Wind Speed Wind Speed (WSPD): 15.5 kts
5-day plot - Wind Gust Wind Gust (GST): 17.5 kts
5-day plot - Atmospheric Pressure Atmospheric Pressure (PRES):29.95 in
5-day plot - Air Temperature Air Temperature (ATMP): 86.0 °F
5-day plot - Water Temperature Water Temperature (WTMP): 86.2 °F
5-day plot - Dew Point Dew Point (DEWP): 80.1 °F
5-day plot - Heat Index Heat Index (HEAT):101.1 °F
5-day plot - Wind Speed at 10 Meters Wind Speed at 10 meters (WSPD10M): 15.5 kts
5-day plot - Wind Speed at 20 Meters Wind Speed at 20 meters (WSPD20M): 17.5 kts
5-day plot -  Wind Speed, Wind Gust and Atmospheric Pressure Combined plot of Wind Speed, Gust, and Air Pressure
Supplemental Measurements
Lowest 1-minute Pressure
Time (EDT)Pressure
9:30 pm29.95 in
Highest 1-minute Wind Speed
Time (EDT)5-day plot - 1-Minute Wind Speed WSPD 5-day plot - 1-Minute Wind Direction WDIR
9:28 pm 15.5 kts E ( 80 deg true )
Previous observations
TIME
(EDT)
5-day plot - Wind Direction
WDIR
 
5-day plot - Wind Speed
WSPD
kts
5-day plot - Wind Gust
GST
kts
5-day plot - Wave Height
WVHT
ft
5-day plot - Dominant Wave Period
DPD
sec
5-day plot - Average Wave Period
APD
sec
5-day plot - Mean Wave Direction
MWD
 
5-day plot - Atmospheric Pressure
PRES
in
5-day plot - Pressure Tendency
PTDY
in
5-day plot - Air Temperature
ATMP
°F
5-day plot - Water Temperature
WTMP
°F
5-day plot - Dew Point
DEWP
°F
5-day plot - Salinity
SAL
psu
5-day plot - Visibility
VIS
nmi
5-day plot - Tide (above MLLW)
TIDE
ft
2024-07-22 09:20 pm E 15.5 17.5 4.6 74.7 E29.94- 85.8 86.2 79.7---
2024-07-22 09:10 pm E 15.5 17.5 4.6-4.7 E29.94- 85.8 86.2 79.9---
2024-07-22 09:00 pm E 15.5 19.4----29.94+0.03 85.8 86.2 79.9---
2024-07-22 08:50 pm E 15.5 17.5 4.6 64.7ESE29.93- 85.8 86.2 80.1---
2024-07-22 08:40 pm E 15.5 17.5----29.93- 85.8 86.2 80.2---
2024-07-22 08:30 pm E 15.5 17.5----29.93- 85.8 86.2 80.1---
2024-07-22 08:20 pm E 15.5 17.5 4.3 64.7ESE29.92- 85.8 86.2 79.9---
2024-07-22 08:10 pm E 13.6 17.5 4.3-4.7ESE29.93- 86.0- 80.1---
2024-07-22 08:00 pm E 15.5 17.5----29.92+0.02 86.0 86.2 80.1---
2024-07-22 07:50 pm E 15.5 17.5 4.6 74.7ESE29.92- 86.0 86.2 80.2---
2024-07-22 07:40 pm E 15.5 17.5----29.92- 86.0 86.2 80.4---
2024-07-22 07:20 pm E 15.5 17.5 4.6 64.7ESE29.91- 86.0 86.2 80.6---
2024-07-22 07:10 pm E 13.6 17.5 4.6-4.7ESE29.91- 86.0 86.2 80.4---
2024-07-22 07:00 pm E 15.5 17.5----29.91+0.00 86.0 86.2 80.4---
2024-07-22 06:50 pm E 15.5 17.5 4.6 84.6ESE29.91- 86.0 86.2 80.4---
2024-07-22 06:40 pm E 13.6 17.5----29.91- 86.0 86.2 80.6---
2024-07-22 06:30 pm E 13.6 17.5----29.91- 86.0 86.2 80.6---
2024-07-22 06:20 pm E 15.5 17.5 4.6 54.5ESE29.91- 86.0 86.2 80.6---
2024-07-22 06:10 pm E 15.5 17.5 4.6-4.5ESE29.90- 85.8 86.2 80.2---
2024-07-22 06:00 pm E 15.5 19.4----29.90-0.02 86.0 86.2 80.2---
2024-07-22 05:50 pm E 15.5 21.4 4.3 54.5ESE29.90- 86.0 86.2 80.2---
2024-07-22 05:40 pm E 17.5 19.4 4.3-4.5ESE29.90- 86.0 86.2 80.2---
2024-07-22 05:30 pm E 17.5 19.4----29.90- 86.0 86.4 80.2---
2024-07-22 05:20 pm E 17.5 19.4 4.6 74.5ESE29.91- 86.0 86.2 80.4---
2024-07-22 05:10 pm E 15.5 19.4 4.6-4.5ESE29.91- 85.8 86.2 80.4---
2024-07-22 05:00 pm E 15.5 19.4----29.91-0.04 85.8 86.2 80.6---
2024-07-22 04:50 pm E 17.5 19.4 3.9 74.6ESE29.91- 86.0 86.2 80.4---
2024-07-22 04:40 pm E 17.5 21.4----29.91- 86.0 86.2 80.6---
2024-07-22 04:30 pm E 15.5 17.5----29.91- 86.0 86.2 80.6---
2024-07-22 04:20 pm E 15.5 17.5 4.3 64.5ESE29.91- 86.0 86.2 80.4---
2024-07-22 04:10 pm E 15.5 17.5 4.3-4.5ESE29.91- 86.0 86.2 80.4---
2024-07-22 04:00 pm E 15.5 19.4----29.92-0.03 85.8 86.2 80.2---
2024-07-22 03:50 pm E 15.5 19.4 4.3 64.6ESE29.92- 86.0 86.2 80.4---
2024-07-22 03:40 pm E 15.5 17.5 4.3-4.6ESE29.92- 86.0 86.2 80.2---
2024-07-22 03:30 pm E 15.5 19.4----29.93- 85.8 86.2 80.2---
2024-07-22 03:20 pm E 15.5 17.5 3.9 84.5ESE29.93- 85.8 86.2 80.4---
2024-07-22 03:10 pm E 15.5 19.4----29.93- 85.8 86.2 80.2---
2024-07-22 03:00 pm E 15.5 19.4----29.93-0.03 85.8 86.0 80.2---
2024-07-22 02:50 pm E 15.5 17.5 3.6 74.3ESE29.93- 85.8 86.0 80.4---
2024-07-22 02:40 pm E 15.5 17.5----29.93- 85.8 86.0 80.4---
2024-07-22 02:30 pm E 15.5 19.4----29.94- 85.8 86.0 80.6---
2024-07-22 02:20 pm E 15.5 19.4 3.6 74.5ESE29.94- 85.8 86.0 80.2---
2024-07-22 02:10 pm E 17.5 19.4----29.94- 85.8 86.0 80.2---
2024-07-22 02:00 pm E 17.5 19.4----29.95-0.02 85.8 86.0 80.2---
2024-07-22 01:50 pm E 15.5 19.4 3.6 84.5ESE29.95- 85.5 86.0 80.4---
2024-07-22 01:40 pm E 15.5 17.5----29.95- 85.1 86.0 80.6---
2024-07-22 01:30 pm E 15.5 17.5----29.95- 85.1 86.0 80.6---
2024-07-22 01:20 pm E 15.5 17.5 3.3 74.5ESE29.95- 84.9 85.8 80.2---
2024-07-22 01:10 pm E 15.5 17.5----29.95- 84.9 85.8 80.1---
2024-07-22 01:00 pm E 15.5 17.5----29.95-0.01 84.7 85.8 79.5---
2024-07-22 12:50 pm E 13.6 15.5 3.3 74.6ESE29.95- 84.6 85.8 78.8---
2024-07-22 12:40 pm E 11.7 15.5 3.3-4.6ESE29.95- 84.2 85.8 77.9---
2024-07-22 12:30 pm E 13.6 15.5----29.95- 84.2 85.8 77.4---
2024-07-22 12:20 pm E 13.6 15.5 3.3 64.8ESE29.95- 84.0 85.8 76.8---
2024-07-22 12:10 pm E 13.6 15.5----29.96- 83.8 85.8 76.1---
2024-07-22 12:00 pm E 13.6 15.5----29.96+0.00 83.8 85.8 76.5---
2024-07-22 11:50 am E 13.6 15.5 3.3 54.8ESE29.96- 83.8 85.8 77.4---
2024-07-22 11:40 am E 11.7 13.6 3.3-4.8ESE29.96- 83.8 85.8 77.4---
2024-07-22 11:30 am E 11.7 13.6----29.96- 83.7 85.8 77.5---
2024-07-22 11:20 am E 11.7 15.5 3.6 64.7 E29.96- 83.5 85.8 77.4---
2024-07-22 11:10 am E 11.7 13.6 3.6-4.7 E29.96- 83.3 85.8 77.5---
2024-07-22 11:00 am E 11.7 13.6----29.96+0.01 82.9 85.8 77.5---
2024-07-22 10:50 am E 9.7 11.7 3.3 64.6ESE29.96- 82.4 85.8 77.2---
2024-07-22 10:40 am E 11.7 13.6 3.3-4.6ESE29.96- 82.0 85.8 76.6---
2024-07-22 10:30 am E 11.7 13.6----29.97- 82.2 85.8 76.8---
2024-07-22 10:20 am E 11.7 13.6 3.9 64.7ESE29.96- 81.5 85.8 75.4---
2024-07-22 10:10 amENE 11.7 13.6 3.9-4.7ESE29.97- 81.7 85.8 75.4---
2024-07-22 10:00 am E 11.7 13.6----29.96+0.04 81.9 85.8 75.9---
2024-07-22 09:50 am E 9.7 11.7 3.6 74.5ESE29.96- 81.7 85.8 75.7---
2024-07-22 09:40 am E 9.7 11.7----29.96- 81.1 85.8 74.8---
2024-07-22 09:30 am E 9.7 13.6----29.96- 80.2 85.8 74.1---
2024-07-22 09:20 amENE 11.7 13.6 3.6 64.3 E29.96- 79.7 86.0 73.9---
2024-07-22 09:10 amENE 13.6 17.5 3.6-4.3 E29.96- 79.3 86.0 74.1---
2024-07-22 09:00 amENE 15.5 17.5----29.96+0.04 79.0 85.8 75.2---
2024-07-22 08:50 amENE 13.6 17.5 3.9 64.4ESE29.96- 78.6 85.8 74.3---
2024-07-22 08:40 amENE 15.5 19.4 3.9-4.4ESE29.96- 78.8 86.0 73.4---
2024-07-22 08:30 am E 13.6 19.4----29.96- 79.3 86.0 73.9---
2024-07-22 08:20 am E 13.6 15.5 3.9 74.3ESE29.96- 79.9 85.8 73.0---
2024-07-22 08:10 am E 15.5 19.4 3.9-4.3ESE29.96- 79.7 85.8 72.7---
2024-07-22 08:00 amENE 21.4 27.2----29.96+0.05 79.5 85.8 74.3---
2024-07-22 07:50 am E 17.5 21.4 3.6 64.4 E29.96- 79.7 85.8 73.4---
2024-07-22 07:40 am E 15.5 19.4----29.94- 78.4 86.0 73.6---
2024-07-22 07:30 am E 13.6 17.5----29.93- 77.0 86.0 73.9---
2024-07-22 07:20 am E 19.4 23.3 3.6 64.4ESE29.93- 77.2 86.0 73.2---
2024-07-22 07:10 am SE 19.4 25.3 3.6-4.4ESE29.94- 79.0 86.0 75.0---
2024-07-22 07:00 amESE 15.5 21.4----29.94+0.02 82.8 86.0 78.1---
2024-07-22 06:50 amENE 11.7 13.6 3.6 64.6ESE29.91- 84.0 86.0 79.7---
2024-07-22 06:40 am E 11.7 13.6 3.6-4.6ESE29.91- 84.4 86.0 79.7---
2024-07-22 06:30 am E 9.7 11.7----29.91- 84.2 86.0 79.5---
2024-07-22 06:20 am E 11.7 15.5 3.9 54.6 E29.91- 84.2 86.0 79.7---
2024-07-22 06:10 am E 11.7 13.6----29.91- 84.2 86.0 79.9---
2024-07-22 06:00 am E 11.7 13.6----29.92-0.01 84.2 86.0 79.7---
2024-07-22 05:50 am E 11.7 13.6 3.6 54.6ESE29.92- 84.2 86.0 79.7---
2024-07-22 05:40 am E 11.7 13.6----29.92- 84.2 86.0 79.5---
2024-07-22 05:30 amESE 11.7 13.6----29.92- 84.4 86.0 79.7---
2024-07-22 05:20 amESE 11.7 13.6 3.6 64.6ESE29.91- 84.4 86.0 79.5---
2024-07-22 05:10 amESE 11.7 13.6 3.6-4.6ESE29.91- 84.0 86.0 79.3---
2024-07-22 05:00 amESE 11.7 13.6----29.91-0.05 83.8 86.0 79.5---
2024-07-22 04:50 am SE 11.7 13.6 3.9 64.7ESE29.91- 83.7 86.0 79.3---
2024-07-22 04:40 am SE 11.7 13.6----29.91- 83.5 86.0 79.2---
2024-07-22 04:30 am SE 11.7 13.6----29.91- 83.3 86.0 79.0---
2024-07-22 04:20 am SE 11.7 13.6 3.6 54.7ESE29.90- 83.3 86.0 79.0---
2024-07-22 04:10 am SE 9.7 11.7 3.6-4.7ESE29.91- 82.9 86.0 78.3---
2024-07-22 04:00 am SE 11.7 13.6----29.91-0.07 82.9 86.0 77.9---
2024-07-22 03:50 am SE 11.7 13.6 3.9 64.7ESE29.91- 83.1 86.0 77.9---
2024-07-22 03:40 am SE 9.7 11.7 3.9-4.7ESE29.91- 82.9 86.0 77.4---
2024-07-22 03:30 am SE 7.8 9.7----29.91- 82.9 86.0 77.0---
2024-07-22 03:20 am SE 7.8 9.7 3.6 64.7 E29.92- 82.9 86.0 76.8---
2024-07-22 03:10 am SE 5.8 7.8----29.93- 82.9 86.0 76.6---
2024-07-22 03:00 am SE 5.8 7.8----29.93-0.06 82.9 86.0 76.5---
2024-07-22 02:50 am SE 3.9 5.8 3.9 54.6ESE29.93- 82.8 86.0 75.7---
2024-07-22 02:40 amESE 5.8 7.8 3.9-4.6ESE29.94- 82.6 86.0 77.0---
2024-07-22 02:30 am E 5.8 7.8----29.94- 82.6 86.0 77.9---
2024-07-22 02:20 am E 7.8 9.7 3.6 64.3ESE29.95- 82.4 86.0 77.4---
2024-07-22 02:10 am E 9.7 9.7 3.6-4.3ESE29.95- 82.4 86.0 77.5---
2024-07-22 02:00 am E 9.7 11.7----29.96-0.01 82.4 86.2 77.5---
2024-07-22 01:50 am E 9.7 11.7 3.6 54.2ESE29.96- 82.4 86.2 77.7---
2024-07-22 01:40 amESE 9.7 11.7----29.97- 82.6 86.2 77.0---
2024-07-22 01:30 amESE 11.7 13.6----29.97- 82.6 86.2 77.0---
2024-07-22 01:20 amESE 11.7 15.5 4.3 54.2ESE29.98- 82.4 86.0 77.9---
2024-07-22 01:10 amESE 15.5 17.5 4.3-4.2ESE29.98- 82.2 86.2 78.4---
2024-07-22 01:00 amESE 15.5 17.5----29.98+0.04 82.0 86.2 78.6---
2024-07-22 12:50 am E 15.5 19.4 3.6 44.2ESE29.99- 82.4 86.2 78.6---
2024-07-22 12:40 amESE 17.5 21.4 3.6-4.2ESE29.99- 82.8- 78.1---
2024-07-22 12:30 amESE 17.5 19.4----30.00- 82.8 86.2 77.5---
2024-07-22 12:20 amESE 15.5 21.4 3.9 54.2 E30.00- 82.6 86.2 77.9---
2024-07-22 12:10 amESE 17.5 21.4 3.9-4.2 E30.00- 82.2 86.2 77.5---
2024-07-22 12:00 amESE 17.5 21.4----29.99+0.08 81.9 86.2 77.0---
2024-07-21 11:50 pmESE 17.5 19.4 3.6 64.2 E29.99- 81.9 86.2 77.7---
2024-07-21 11:40 pmESE 17.5 19.4 3.6-4.2 E29.98- 82.2 86.2 78.3---
2024-07-21 11:30 pm E 19.4 23.3----29.97- 82.8 86.2 77.4---
2024-07-21 11:20 pm E 9.7 15.5 3.3 64.1 E29.98- 82.4 86.2 74.3---
2024-07-21 11:10 pm E 9.7 11.7 3.3-4.1 E29.98- 81.7 86.2 76.5---
2024-07-21 11:00 pm E 11.7 13.6----29.97+0.06 80.2 86.2 75.6---
2024-07-21 10:50 pm E 11.7 15.5 3.3 64.0ENE29.96- 79.2 86.2 74.5---
2024-07-21 10:40 pm E 15.5 17.5----29.96- 79.7 86.4 75.7---
2024-07-21 10:30 pmESE 21.4 27.2----29.97- 80.6 86.2 76.3---
2024-07-21 10:20 pm E 23.3 27.2 3.3 64.2 E29.97- 81.1 86.2 77.4---
2024-07-21 10:10 pm E 19.4 23.3 3.3-4.2 E29.96- 82.0 86.2 77.7---
2024-07-21 10:00 pm E 13.6 17.5----29.94+0.05 83.7 86.2 78.1---
2024-07-21 09:50 pmENE 13.6 17.5 3.3 64.4ESE29.94- 83.1 86.2 77.5---
2024-07-21 09:40 pmENE 15.5 17.5 3.3-4.4ESE29.94- 83.1 86.4 78.4---
2024-07-21 09:30 pmENE 13.6 17.5----29.94- 84.0 86.4 79.0---
2024-07-21 09:20 pmENE 13.6 17.5 3.0 64.3 E29.93- 84.6 86.4 78.8---
2024-07-21 09:10 pm E 13.6 15.5 3.0-4.3 E29.92- 84.7 86.4 79.0---
2024-07-21 09:00 pm E 13.6 15.5----29.92+0.03 85.3 86.4 79.3---
2024-07-21 08:50 pm E 13.6 15.5 3.3 64.5 E29.92- 84.9 86.4 79.5---

Detailed Wave Summary
for 42056 as of
(9:10 pm EDT on 07/22/2024)
0110 GMT on 07/23/2024:

These wave data are displayed in rounded times.

     

Click on the graph icon in the table below to see a time series plot of the last five days of that observation.

5-day plot - Significant Wave Height Significant Wave Height (WVHT): 4.6 ft
5-day plot - Swell Height Swell Height (SwH): 0.0 ft
5-day plot - Wind Wave Height Wind Wave Height (WWH): 4.6 ft
5-day plot - Wind Wave Period Wind Wave Period (WWP): 7.1 sec
5-day plot - Wind Wave Direction Wind Wave Direction (WWD): E
5-day plot - Wave Steepness Wave Steepness (STEEPNESS): STEEP
5-day plot - Average Wave Period Average Wave Period (APD): 4.7 sec
Previous observations
TIME
(EDT)
5-day plot - Wave Height
WVHT
ft
5-day plot - Swell Height
SwH
ft
5-day plot - Swell Period
SwP
sec
5-day plot - Swell Direction
SwD
 
5-day plot - Wind Wave Height
WWH
ft
5-day plot - Wind Wave Period
WWP
sec
5-day plot - Wind Wave Direction
WWD
 
5-day plot - Wave Steepness
STEEPNESS
 
5-day plot - Average Wave Period
APD
sec
2024-07-22 08:40 pm 4.6 1.6 8.3ESE 4.3 5.6 ESEVERY_STEEP 4.7
2024-07-22 08:10 pm 4.3 1.6 7.7ESE 3.9 6.2 ESE STEEP 4.7
2024-07-22 07:40 pm 4.6 1.6 8.3ESE 4.3 7.1 ESE STEEP 4.7
2024-07-22 07:10 pm 4.6 1.6 7.7ESE 4.3 5.9 ESE STEEP 4.7
2024-07-22 06:40 pm 4.6 2.0 7.7ESE 3.9 5.6 ESE AVERAGE 4.6
2024-07-22 06:10 pm 4.6 1.3 8.3ESE 4.3 5.0 ESEVERY_STEEP 4.5
2024-07-22 05:40 pm 4.3 1.3 7.7 SE 3.9 5.0 ESEVERY_STEEP 4.5
2024-07-22 05:10 pm 4.6 0.0-- 4.6 7.1 ESE STEEP 4.5
2024-07-22 04:40 pm 3.9 1.3 7.7ESE 3.9 6.7 ESE STEEP 4.6
2024-07-22 04:10 pm 4.3 1.6 7.7ESE 3.9 6.2 ESE STEEP 4.5
2024-07-22 03:40 pm 4.3 1.3 11.4 SE 3.9 5.9 ESE STEEP 4.6
2024-07-22 03:10 pm 3.9 2.0 7.7ESE 3.3 6.2 ESE AVERAGE 4.5
2024-07-22 02:40 pm 3.6 2.0 7.1ESE 3.0 5.3 ESE AVERAGE 4.3
2024-07-22 02:10 pm 3.6 2.0 7.1ESE 3.0 6.2 ESE AVERAGE 4.5
2024-07-22 01:40 pm 3.6 1.6 7.7ESE 3.0 6.2 ESE AVERAGE 4.5
2024-07-22 01:10 pm 3.3 1.6 7.1ESE 3.0 6.2 ESE AVERAGE 4.5
2024-07-22 12:40 pm 3.3 2.0 7.1ESE 2.3 4.3 ESE AVERAGE 4.6
2024-07-22 12:10 pm 3.3 1.6 12.1ESE 3.0 6.2 ESE STEEP 4.8
2024-07-22 11:40 am 3.3 2.0 7.7ESE 2.6 5.3 ESEVERY_STEEP 4.8
2024-07-22 11:10 am 3.6 2.3 5.9 E 2.3 4.3 ESE STEEP 4.7
2024-07-22 10:40 am 3.3 2.6 6.2ESE 2.3 4.5 ESE STEEP 4.6
2024-07-22 10:10 am 3.9 2.0 6.7ESE 3.3 5.9 ESE STEEP 4.7
2024-07-22 09:40 am 3.6 3.0 7.1ESE 2.0 3.7 ESE AVERAGE 4.5
2024-07-22 09:10 am 3.6 2.3 6.2 E 2.6 5.3 ESE STEEP 4.3
2024-07-22 08:40 am 3.9 0.0-- 3.9 5.9 ESE STEEP 4.4
2024-07-22 08:10 am 3.9 2.0 6.7ESE 3.6 5.9 ESE STEEP 4.3
2024-07-22 07:40 am 3.6 1.0 7.7ESE 3.6 5.9 E STEEP 4.4
2024-07-22 07:10 am 3.6 0.0-- 3.6 5.6 ESE STEEP 4.4
2024-07-22 06:40 am 3.6 2.3 6.2ESE 2.6 5.6 ESE STEEP 4.6
2024-07-22 06:10 am 3.9 2.0 6.7ESE 3.3 5.3 EVERY_STEEP 4.6
2024-07-22 05:40 am 3.6 2.3 6.2 E 3.0 5.3 ESEVERY_STEEP 4.6
2024-07-22 05:10 am 3.6 2.0 6.2 E 3.0 5.6 ESE STEEP 4.6
2024-07-22 04:40 am 3.9 2.6 5.9ESE 3.0 5.3 ESE STEEP 4.7
2024-07-22 04:10 am 3.6 2.6 5.3ESE 2.3 4.0 ESEVERY_STEEP 4.7
2024-07-22 03:40 am 3.9 2.6 5.6ESE 3.0 5.0 ESEVERY_STEEP 4.7
2024-07-22 03:10 am 3.6 3.3 5.9 E 1.6 4.0 ESE STEEP 4.7
2024-07-22 02:40 am 3.9 3.3 5.3ESE 1.6 4.0 ESEVERY_STEEP 4.6
2024-07-22 02:10 am 3.6 3.0 5.9ESE 2.0 4.0 ESE STEEP 4.3
2024-07-22 01:40 am 3.6 2.3 5.0ESE 3.0 4.5 ESEVERY_STEEP 4.2
2024-07-22 01:10 am 4.3 1.0 7.7ESE 3.9 4.5 ESEVERY_STEEP 4.2
2024-07-22 12:40 am 3.6 0.0-- 3.6 4.3 ESEVERY_STEEP 4.2
2024-07-22 12:10 am 3.9 1.3 7.7ESE 3.6 4.8 EVERY_STEEP 4.2
2024-07-21 11:40 pm 3.6 1.3 7.1ESE 3.3 5.9 E STEEP 4.2
2024-07-21 11:10 pm 3.3 2.3 6.2 E 2.3 4.0 E STEEP 4.1
2024-07-21 10:40 pm 3.3 1.3 7.7ESE 3.0 5.9 ENE STEEP 4.0
2024-07-21 10:10 pm 3.3 1.3 12.9SSE 3.0 5.9 E STEEP 4.2
2024-07-21 09:40 pm 3.3 1.3 8.3ESE 2.6 5.9 ESE STEEP 4.4
2024-07-21 09:10 pm 3.0 1.3 7.7ESE 2.6 5.6 E STEEP 4.3

Plot of wave energy versus frequency (and period)